TimeEST,TemperatureF,Dew PointF,Humidity,Sea Level PressureIn,VisibilityMPH,Wind Direction,Wind SpeedMPH,Gust SpeedMPH,PrecipitationIn,Events,Conditions,WindDirDegrees,DateUTC
12:21 AM,46.4,44.6,93,30.21,4.0,NNE,6.9,-,0.05,Rain,Light Rain,30,2012-12-05 05:21:00
12:34 AM,44.6,42.8,93,30.21,4.0,NNE,6.9,-,0.06,Rain,Light Rain,30,2012-12-05 05:34:00
12:53 AM,44.1,42.1,93,30.21,5.0,NE,5.8,-,0.10,Rain,Light Rain,40,2012-12-05 05:53:00
1:19 AM,42.8,41.0,93,30.23,4.0,NE,3.5,-,0.05,Rain,Rain,40,2012-12-05 06:19:00
1:32 AM,42.8,41.0,93,30.22,8.0,Variable,4.6,-,0.06,Rain,Light Rain,0,2012-12-05 06:32:00
1:53 AM,43.0,41.0,93,30.22,10.0,Variable,4.6,-,0.07,Rain,Light Rain,0,2012-12-05 06:53:00
2:53 AM,43.0,41.0,93,30.23,10.0,Calm,Calm,-,0.04,Rain,Light Rain,0,2012-12-05 07:53:00
3:53 AM,43.0,41.0,93,30.25,10.0,Calm,Calm,-,0.01,,Overcast,0,2012-12-05 08:53:00
4:53 AM,43.0,39.9,89,30.25,10.0,Calm,Calm,-,0.00,,Overcast,0,2012-12-05 09:53:00
5:24 AM,42.8,42.8,100,30.26,4.0,Calm,Calm,-,N/A,,Overcast,0,2012-12-05 10:24:00
5:53 AM,43.0,41.0,93,30.27,10.0,Calm,Calm,-,N/A,,Clear,0,2012-12-05 10:53:00
6:53 AM,42.1,39.9,92,30.28,7.0,Calm,Calm,-,N/A,,Mostly Cloudy,0,2012-12-05 11:53:00
7:42 AM,41.0,39.2,93,30.30,1.8,NW,3.5,-,N/A,,Clear,310,2012-12-05 12:42:00
7:49 AM,41.0,39.2,93,30.30,1.5,WNW,3.5,-,N/A,,Clear,300,2012-12-05 12:49:00
7:51 AM,41.0,39.2,93,30.30,2.5,Calm,Calm,-,N/A,,Clear,0,2012-12-05 12:51:00
7:53 AM,41.0,39.0,93,30.30,6.0,Calm,Calm,-,N/A,,Clear,0,2012-12-05 12:53:00
8:03 AM,41.0,39.2,93,30.30,1.0,Calm,Calm,-,N/A,,Mist,0,2012-12-05 13:03:00
9:53 AM,44.1,41.0,89,30.32,10.0,NW,4.6,-,N/A,,Clear,320,2012-12-05 14:53:00
10:53 AM,48.0,41.0,77,30.32,10.0,NW,3.5,-,N/A,,Clear,320,2012-12-05 15:53:00
11:53 AM,50.0,41.0,71,30.31,10.0,Variable,3.5,-,N/A,,Clear,0,2012-12-05 16:53:00
12:53 PM,52.0,37.0,57,30.29,10.0,Calm,Calm,-,N/A,,Clear,0,2012-12-05 17:53:00
1:53 PM,54.0,36.0,51,30.27,10.0,Calm,Calm,-,N/A,,Clear,0,2012-12-05 18:53:00
2:53 PM,51.1,30.9,46,30.26,10.0,Calm,Calm,-,N/A,,Clear,0,2012-12-05 19:53:00
3:53 PM,54.0,30.0,40,30.25,10.0,Calm,Calm,-,N/A,,Clear,0,2012-12-05 20:53:00
4:53 PM,51.1,30.0,44,30.26,10.0,Calm,Calm,-,N/A,,Clear,0,2012-12-05 21:53:00
5:53 PM,48.9,28.0,44,30.26,10.0,NNE,3.5,-,N/A,,Clear,20,2012-12-05 22:53:00
6:53 PM,46.9,30.0,52,30.27,10.0,NNE,5.8,-,N/A,,Clear,30,2012-12-05 23:53:00
7:53 PM,45.0,35.1,68,30.27,10.0,Variable,4.6,-,N/A,,Clear,0,2012-12-06 00:53:00
8:53 PM,44.1,35.1,71,30.27,10.0,NE,5.8,-,N/A,,Clear,50,2012-12-06 01:53:00
9:53 PM,42.1,34.0,73,30.27,10.0,NE,5.8,-,N/A,,Clear,40,2012-12-06 02:53:00
10:53 PM,39.9,32.0,73,30.25,10.0,NE,5.8,-,N/A,,Clear,40,2012-12-06 03:53:00
11:53 PM,37.9,30.0,73,30.24,10.0,NE,4.6,-,N/A,,Clear,40,2012-12-06 04:53:00